Regional Weather Roundup
Issued by NWS

Home | Current Version | Previous Version | Graphics & Text | Print | Product List | Glossary On
Versions: 1 2 3 4 5 6 7 8 9 10 11 12 13 14 15 16 17 18 19 20 21 22 23 24 25 26 27 28 29 30 31 32 33 34 35 36 37 38 39 40 41 42 43 44 45 46 47 48 49 50
000
ASUS43 KLMK 270702
RWRKY
KENTUCKY REGIONAL WEATHER ROUNDUP
NATIONAL WEATHER SERVICE LOUISVILLE KY
200 AM EST MON FEB 27 2017

NOTE "FAIR" INDICATES FEW OR NO CLOUDS BELOW 12,000 FEET
WITH NO SIGNIFICANT WEATHER AND/OR OBSTRUCTIONS TO VISIBILITY.

KYZ001>023-026-027-061>063-070>075-270800-
WESTERN AND SOUTH CENTRAL KENTUCKY

CITY           SKY/WX    TMP DP  RH WIND       PRES   REMARKS
PADUCAH        LGT RAIN  47  35  63 SE5       30.14S
HENDERSON      CLOUDY    43  28  56 CALM      30.15F
OWENSBORO      CLOUDY    45  29  53 CALM      30.18R
HOPKINSVILLE   NOT AVBL
BOWLING GREEN  CLOUDY    47  26  44 CALM      30.21S
GLASGOW        NOT AVBL
$$

KYZ024-025-028>034-038-045-046-053-270800-
NORTH CENTRAL KENTUCKY

CITY           SKY/WX    TMP DP  RH WIND       PRES   REMARKS
LOUISVILLE/SDF LGT RAIN  47  23  38 SW10      30.20R
LOUISVILLE/LOU CLOUDY    45  22  40 S3        30.20R
FORT KNOX      NOT AVBL
$$

KYZ035>037-039>044-047>052-055>060-089>105-270800-
NORTHEAST KENTUCKY

CITY           SKY/WX    TMP DP  RH WIND       PRES   REMARKS
LEXINGTON      CLOUDY    48  25  40 SW13G22   30.20R
COVINGTON      CLOUDY    40  22  48 SE3       30.18R
FRANKFORT      CLOUDY    46  21  37 S10       30.19R
$$

KYZ054-064>069-076>088-106>120-270800-
SOUTHEAST KENTUCKY

CITY           SKY/WX    TMP DP  RH WIND       PRES   REMARKS
JACKSON        CLOUDY    42  20  41 SW3       30.21R
LONDON         CLOUDY    40  26  57 S5        30.21R
SOMERSET       CLOUDY    39  28  65 CALM      30.24R
MIDDLESBORO    CLOUDY    34  28  79 CALM      30.24S
MONTICELLO     CLOUDY    42  30  62 VRB6      30.23R
$$





USA.gov is the U.S. government's official web portal to all federal, state and local government web resources and services.